Regional Weather Roundup
Issued by NWS

Home | Current Version | Previous Version | Graphics & Text | Print | Product List | Glossary On
Versions: 1 2 3 4 5 6 7 8 9 10 11 12 13 14 15 16 17 18 19 20 21 22 23 24 25 26 27 28 29 30 31 32 33 34 35 36 37 38 39 40 41 42 43 44 45 46 47 48 49 50
000
ASUS43 KBIS 261202
RWRND

NORTH DAKOTA REGIONAL WEATHER ROUNDUP
NATIONAL WEATHER SERVICE BISMARCK ND
700 AM CDT MON JUN 26 2017

NOTE: "FAIR" INDICATES FEW OR NO CLOUDS BELOW 12,000 FEET WITH NO
SIGNIFICANT WEATHER AND/OR OBSTRUCTIONS TO VISIBILITY.


NDZ001>003-009>011-017-261300-
NORTHWEST NORTH DAKOTA

CITY           SKY/WX    TMP DP  RH WIND       PRES   REMARKS
WILLISTON      CLEAR     49  44  83 NE5       30.24S
6HR MIN TEMP:  44; 6HR MAX TEMP:  55;

MINOT          CLEAR     49  39  68 SW8       30.25R
MINOT AFB      CLEAR     44  38  78 SW3       30.25R
$$

NDZ018>021-031>035-040>046-261300-
SOUTHWEST NORTH DAKOTA

CITY           SKY/WX    TMP DP  RH WIND       PRES   REMARKS
BISMARCK       CLEAR     41  40  96 CALM      30.28R
6HR MIN TEMP:  40; 6HR MAX TEMP:  50;

DICKINSON      PTCLDY    45  41  86 SE7       30.24S
GARRISON         N/A     42  40  92 CALM      30.26R
6HR MIN TEMP:  38; 6HR MAX TEMP:  50;

HETTINGER ARPT CLEAR     46  40  79 NE5       30.27S
$$

NDZ004>008-012>016-024-026-027-054-261300-
NORTHEAST NORTH DAKOTA

CITY           SKY/WX    TMP DP  RH WIND       PRES   REMARKS
GRAND FORKS    SUNNY     49  44  83 W7        30.21S
GRND FRKS AFB  SUNNY     51  44  78 NW6       30.22R
DEVILS LAKE    SUNNY     50  47  89 W3        30.25R
$$

NDZ022-023-025-028>030-036>039-047>053-261300-
SOUTHEAST NORTH DAKOTA

CITY           SKY/WX    TMP DP  RH WIND       PRES   REMARKS
FARGO          SUNNY     47  42  83 CALM      30.23R
6HR MIN TEMP:  40; 6HR MAX TEMP:  48;

JAMESTOWN      MOSUNNY   46  42  86 CALM      30.25R
$$




USA.gov is the U.S. government's official web portal to all federal, state and local government web resources and services.